Location: Unspecified
(38.6403°N, 0.0000°E)
Time: 02:38:52
(UTC+00:00)

NOAA 11 - Visible Passes

Search period start: 04 April 2026 00:00
Search period end: 14 April 2026 00:00
Orbit: 831 x 848 km, 98.6° (Epoch: 29 March)

Date Brightness Start Highest point End Pass type
(mag) Time Alt. Az. Time Alt. Az. Time Alt. Az.
4 Apr 7.0 01:00:04 10° ENE 01:00:09 10° ENE 01:00:09 10° ENE visible
4 Apr 5.3 02:38:38 10° N 02:41:55 37° N 02:41:55 37° N visible
5 Apr 5.3 02:23:29 10° NNE 02:26:44 38° NNE 02:26:44 38° NNE visible
5 Apr 6.2 04:07:00 10° NW 04:08:30 11° WNW 04:08:30 11° WNW visible
6 Apr 5.5 02:08:24 10° NNE 02:11:33 36° NNE 02:11:33 36° NNE visible
6 Apr 5.9 03:50:37 10° NNW 03:53:20 15° WNW 03:53:20 15° WNW visible
7 Apr 5.8 01:53:25 10° NNE 01:56:22 31° NE 01:56:22 31° NE visible
7 Apr 5.7 03:34:50 10° NNW 03:38:09 20° NW 03:38:09 20° NW visible
8 Apr 6.1 01:38:32 10° NNE 01:41:11 25° NE 01:41:11 25° NE visible
8 Apr 5.4 03:19:17 10° N 03:22:58 27° NW 03:22:58 27° NW visible
9 Apr 6.4 01:23:48 10° NE 01:26:00 20° ENE 01:26:00 20° ENE visible
9 Apr 5.1 03:03:53 10° N 03:07:46 34° NW 03:07:46 34° NW visible
10 Apr 6.6 01:09:18 10° NE 01:10:49 15° ENE 01:10:49 15° ENE visible
10 Apr 4.9 02:48:34 10° N 02:52:36 43° NNW 02:52:36 43° NNW visible
11 Apr 6.9 00:55:13 10° ENE 00:55:39 11° ENE 00:55:39 11° ENE visible
11 Apr 4.7 02:33:22 10° N 02:37:25 50° N 02:37:25 50° N visible
12 Apr 4.8 02:18:13 10° NNE 02:22:14 51° NNE 02:22:14 51° NNE visible
12 Apr 6.1 04:01:13 10° NW 04:03:22 12° WNW 04:04:00 12° WNW visible
13 Apr 5.1 02:03:10 10° NNE 02:07:02 45° NE 02:07:02 45° NE visible
13 Apr 5.8 03:45:06 10° NNW 03:48:29 17° WNW 03:48:49 17° WNW visible
